Year,Month,Day,Hour,Minute,Value (Times are PST for temperature in C)
2015,08,07,00,00,15.00
2015,08,07,00,01,15.00
2015,08,07,00,02,15.00
2015,08,07,00,03,15.00
2015,08,07,00,04,15.00
2015,08,07,00,05,15.00
2015,08,07,00,06,15.00
2015,08,07,00,07,15.00
2015,08,07,00,08,15.00
2015,08,07,00,09,15.00
2015,08,07,00,10,14.90
2015,08,07,00,11,14.90
2015,08,07,00,12,14.90
2015,08,07,00,13,14.90
2015,08,07,00,14,14.90
2015,08,07,00,15,14.80
2015,08,07,00,16,14.80
2015,08,07,00,17,14.80
2015,08,07,00,18,14.80
2015,08,07,00,19,14.80
2015,08,07,00,20,14.70
2015,08,07,00,21,14.70
2015,08,07,00,22,14.70
2015,08,07,00,23,14.60
2015,08,07,00,24,14.60
2015,08,07,00,25,14.60
2015,08,07,00,26,14.60
2015,08,07,00,27,14.60
2015,08,07,00,28,14.60
2015,08,07,00,29,14.60
2015,08,07,00,30,14.60
2015,08,07,00,31,14.60
2015,08,07,00,32,14.60
2015,08,07,00,33,14.60
2015,08,07,00,34,14.60
2015,08,07,00,35,14.60
2015,08,07,00,36,14.60
2015,08,07,00,37,14.60
2015,08,07,00,38,14.60
2015,08,07,00,39,14.60
2015,08,07,00,40,14.60
2015,08,07,00,41,14.60
2015,08,07,00,42,14.60
2015,08,07,00,43,14.60
2015,08,07,00,44,14.60
2015,08,07,00,45,14.60
2015,08,07,00,46,14.60
2015,08,07,00,47,14.60
2015,08,07,00,48,14.60
2015,08,07,00,49,14.60
2015,08,07,00,50,14.60
2015,08,07,00,51,14.60
2015,08,07,00,52,14.60
2015,08,07,00,53,14.60
2015,08,07,00,54,14.60
2015,08,07,00,55,14.60
2015,08,07,00,56,14.60
2015,08,07,00,57,14.60
2015,08,07,00,58,14.60
2015,08,07,00,59,14.60
2015,08,07,01,00,14.50
2015,08,07,01,01,14.50
2015,08,07,01,02,14.50
2015,08,07,01,03,14.50
2015,08,07,01,04,14.50
2015,08,07,01,05,14.40
2015,08,07,01,06,14.40
2015,08,07,01,07,14.40
2015,08,07,01,08,14.40
2015,08,07,01,09,14.40
2015,08,07,01,10,14.40
2015,08,07,01,11,14.40
2015,08,07,01,12,14.30
2015,08,07,01,13,14.30
2015,08,07,01,14,14.30
2015,08,07,01,15,14.30
2015,08,07,01,16,14.30
2015,08,07,01,17,14.30
2015,08,07,01,18,14.20
2015,08,07,01,19,14.20
2015,08,07,01,20,14.20
2015,08,07,01,21,14.20
2015,08,07,01,22,14.20
2015,08,07,01,23,14.20
2015,08,07,01,24,14.20
2015,08,07,01,25,14.20
2015,08,07,01,26,14.20
2015,08,07,01,27,14.20
2015,08,07,01,28,14.20
2015,08,07,01,29,14.10
2015,08,07,01,30,14.10
2015,08,07,01,31,14.10
2015,08,07,01,32,14.10
2015,08,07,01,33,14.10
2015,08,07,01,34,14.10
2015,08,07,01,35,14.00
2015,08,07,01,36,14.00
2015,08,07,01,37,14.00
2015,08,07,01,38,14.00
2015,08,07,01,39,14.00
2015,08,07,01,40,14.00
2015,08,07,01,41,14.00
2015,08,07,01,42,14.00
2015,08,07,01,43,14.10
2015,08,07,01,44,14.00
2015,08,07,01,45,14.00
2015,08,07,01,46,14.00
2015,08,07,01,47,14.00
2015,08,07,01,48,14.00
2015,08,07,01,49,14.00
2015,08,07,01,50,14.00
2015,08,07,01,51,14.00
2015,08,07,01,52,14.00
2015,08,07,01,53,14.00
2015,08,07,01,54,14.00
2015,08,07,01,55,14.00
2015,08,07,01,56,14.00
2015,08,07,01,57,14.00
2015,08,07,01,58,14.00
2015,08,07,01,59,13.90
2015,08,07,02,00,13.90
2015,08,07,02,01,13.90
2015,08,07,02,02,13.90
2015,08,07,02,03,13.90
2015,08,07,02,04,13.90
2015,08,07,02,05,13.90
2015,08,07,02,06,13.90
2015,08,07,02,07,13.80
2015,08,07,02,08,13.80
2015,08,07,02,09,13.80
2015,08,07,02,10,13.80
2015,08,07,02,11,13.80
2015,08,07,02,12,13.70
2015,08,07,02,13,13.70
2015,08,07,02,14,13.70
2015,08,07,02,15,13.70
2015,08,07,02,16,13.70
2015,08,07,02,17,13.70
2015,08,07,02,18,13.70
2015,08,07,02,19,13.70
2015,08,07,02,20,13.60
2015,08,07,02,21,13.60
2015,08,07,02,22,13.60
2015,08,07,02,23,13.50
2015,08,07,02,24,13.50
2015,08,07,02,25,13.50
2015,08,07,02,26,13.50
2015,08,07,02,27,13.40
2015,08,07,02,28,13.40
2015,08,07,02,29,13.40
2015,08,07,02,30,13.40
2015,08,07,02,31,13.40
2015,08,07,02,32,13.40
2015,08,07,02,33,13.40
2015,08,07,02,34,13.40
2015,08,07,02,35,13.40
2015,08,07,02,36,13.30
2015,08,07,02,37,13.30
2015,08,07,02,38,13.30
2015,08,07,02,39,13.30
2015,08,07,02,40,13.20
2015,08,07,02,41,13.20
2015,08,07,02,42,13.20
2015,08,07,02,43,13.20
2015,08,07,02,44,13.20
2015,08,07,02,45,13.20
2015,08,07,02,46,13.20
2015,08,07,02,47,13.20
2015,08,07,02,48,13.20
2015,08,07,02,49,13.20
2015,08,07,02,50,13.20
2015,08,07,02,51,13.20
2015,08,07,02,52,13.20
2015,08,07,02,53,13.20
2015,08,07,02,54,13.20
2015,08,07,02,55,13.10
2015,08,07,02,56,13.10
2015,08,07,02,57,13.10
2015,08,07,02,58,13.10
2015,08,07,02,59,13.00
2015,08,07,03,00,13.00
2015,08,07,03,01,13.00
2015,08,07,03,02,13.00
2015,08,07,03,03,13.00
2015,08,07,03,04,13.00
2015,08,07,03,05,13.00
2015,08,07,03,06,13.00
2015,08,07,03,07,13.00
2015,08,07,03,08,13.00
2015,08,07,03,09,13.00
2015,08,07,03,10,13.00
2015,08,07,03,11,13.00
2015,08,07,03,12,13.00
2015,08,07,03,13,13.00
2015,08,07,03,14,13.00
2015,08,07,03,15,13.00
2015,08,07,03,16,13.00
2015,08,07,03,17,13.00
2015,08,07,03,18,13.00
2015,08,07,03,19,13.10
2015,08,07,03,20,13.10
2015,08,07,03,21,13.10
2015,08,07,03,22,13.10
2015,08,07,03,23,13.20
2015,08,07,03,24,13.20
2015,08,07,03,25,13.20
2015,08,07,03,26,13.20
2015,08,07,03,27,13.20
2015,08,07,03,28,13.20
2015,08,07,03,29,13.20
2015,08,07,03,30,13.20
2015,08,07,03,31,13.20
2015,08,07,03,32,13.20
2015,08,07,03,33,13.20
2015,08,07,03,34,13.20
2015,08,07,03,35,13.20
2015,08,07,03,36,13.20
2015,08,07,03,37,13.10
2015,08,07,03,38,13.10
2015,08,07,03,39,13.00
2015,08,07,03,40,13.00
2015,08,07,03,41,12.90
2015,08,07,03,42,12.80
2015,08,07,03,43,12.80
2015,08,07,03,44,12.70
2015,08,07,03,45,12.70
2015,08,07,03,46,12.60
2015,08,07,03,47,12.60
2015,08,07,03,48,12.50
2015,08,07,03,49,12.50
2015,08,07,03,50,12.60
2015,08,07,03,51,12.60
2015,08,07,03,52,12.70
2015,08,07,03,53,12.70
2015,08,07,03,54,12.70
2015,08,07,03,55,12.70
2015,08,07,03,56,12.70
2015,08,07,03,57,12.70
2015,08,07,03,58,12.70
2015,08,07,03,59,12.70
2015,08,07,04,00,12.80
2015,08,07,04,01,12.80
2015,08,07,04,02,12.80
2015,08,07,04,03,12.80
2015,08,07,04,04,12.90
2015,08,07,04,05,12.90
2015,08,07,04,06,12.90
2015,08,07,04,07,12.90
2015,08,07,04,08,12.90
2015,08,07,04,09,12.90
2015,08,07,04,10,12.90
2015,08,07,04,11,12.90
2015,08,07,04,12,12.90
2015,08,07,04,13,12.90
2015,08,07,04,14,12.90
2015,08,07,04,15,12.80
2015,08,07,04,16,12.80
2015,08,07,04,17,12.80
2015,08,07,04,18,12.80
2015,08,07,04,19,12.80
2015,08,07,04,20,12.70
2015,08,07,04,21,12.70
2015,08,07,04,22,12.70
2015,08,07,04,23,12.70
2015,08,07,04,24,12.80
2015,08,07,04,25,12.80
2015,08,07,04,26,12.80
2015,08,07,04,27,12.80
2015,08,07,04,28,12.80
2015,08,07,04,29,12.80
2015,08,07,04,30,12.80
2015,08,07,04,31,12.70
2015,08,07,04,32,12.70
2015,08,07,04,33,12.70
2015,08,07,04,34,12.70
2015,08,07,04,35,12.70
2015,08,07,04,36,12.70
2015,08,07,04,37,12.70
2015,08,07,04,38,12.70
2015,08,07,04,39,12.70
2015,08,07,04,40,12.70
2015,08,07,04,41,12.70
2015,08,07,04,42,12.70
2015,08,07,04,43,12.70
2015,08,07,04,44,12.70
2015,08,07,04,45,12.70
2015,08,07,04,46,12.70
2015,08,07,04,47,12.70
2015,08,07,04,48,12.70
2015,08,07,04,49,12.70
2015,08,07,04,50,12.70
2015,08,07,04,51,12.70
2015,08,07,04,52,12.70
2015,08,07,04,53,12.70
2015,08,07,04,54,12.70
2015,08,07,04,55,12.60
2015,08,07,04,56,12.60
2015,08,07,04,57,12.60
2015,08,07,04,58,12.60
2015,08,07,04,59,12.60
2015,08,07,05,00,12.60
2015,08,07,05,01,12.60
2015,08,07,05,02,12.60
2015,08,07,05,03,12.50
2015,08,07,05,04,12.50
2015,08,07,05,05,12.50
2015,08,07,05,06,12.50
2015,08,07,05,07,12.50
2015,08,07,05,08,12.50
2015,08,07,05,09,12.50
2015,08,07,05,10,12.40
2015,08,07,05,11,12.40
2015,08,07,05,12,12.40
2015,08,07,05,13,12.40
2015,08,07,05,14,12.40
2015,08,07,05,15,12.30
2015,08,07,05,16,12.30
2015,08,07,05,17,12.30
2015,08,07,05,18,12.30
2015,08,07,05,19,12.30
2015,08,07,05,20,12.30
2015,08,07,05,21,12.30
2015,08,07,05,22,12.30
2015,08,07,05,23,12.30
2015,08,07,05,24,12.30
2015,08,07,05,25,12.30
2015,08,07,05,26,12.30
2015,08,07,05,27,12.30
2015,08,07,05,28,12.30
2015,08,07,05,29,12.30
2015,08,07,05,30,12.30
2015,08,07,05,31,12.20
2015,08,07,05,32,12.20
2015,08,07,05,33,12.20
2015,08,07,05,34,12.20
2015,08,07,05,35,12.20
2015,08,07,05,36,12.20
2015,08,07,05,37,12.20
2015,08,07,05,38,12.20
2015,08,07,05,39,12.30
2015,08,07,05,40,12.30
2015,08,07,05,41,12.30
2015,08,07,05,42,12.30
2015,08,07,05,43,12.30
2015,08,07,05,44,12.30
2015,08,07,05,45,12.30
2015,08,07,05,46,12.30
2015,08,07,05,47,12.30
2015,08,07,05,48,12.30
2015,08,07,05,49,12.30
2015,08,07,05,50,12.30
2015,08,07,05,51,12.30
2015,08,07,05,52,12.30
2015,08,07,05,53,12.30
2015,08,07,05,54,12.30
2015,08,07,05,55,12.30
2015,08,07,05,56,12.30
2015,08,07,05,57,12.20
2015,08,07,05,58,12.20
2015,08,07,05,59,12.10
2015,08,07,06,00,12.00
2015,08,07,06,01,12.00
2015,08,07,06,02,11.90
2015,08,07,06,03,11.90
2015,08,07,06,04,11.90
2015,08,07,06,05,11.90
2015,08,07,06,06,11.90
2015,08,07,06,07,11.90
2015,08,07,06,08,11.90
2015,08,07,06,09,12.00
2015,08,07,06,10,12.00
2015,08,07,06,11,12.00
2015,08,07,06,12,12.10
2015,08,07,06,13,12.10
2015,08,07,06,14,12.10
2015,08,07,06,15,12.20
2015,08,07,06,16,12.20
2015,08,07,06,17,12.20
2015,08,07,06,18,12.20
2015,08,07,06,19,12.30
2015,08,07,06,20,12.30
2015,08,07,06,21,12.30
2015,08,07,06,22,12.30
2015,08,07,06,23,12.30
2015,08,07,06,24,12.30
2015,08,07,06,25,12.30
2015,08,07,06,26,12.30
2015,08,07,06,27,12.40
2015,08,07,06,28,12.40
2015,08,07,06,29,12.40
2015,08,07,06,30,12.40
2015,08,07,06,31,12.40
2015,08,07,06,32,12.40
2015,08,07,06,33,12.50
2015,08,07,06,34,12.50
2015,08,07,06,35,12.60
2015,08,07,06,36,12.60
2015,08,07,06,37,12.60
2015,08,07,06,38,12.70
2015,08,07,06,39,12.70
2015,08,07,06,40,12.70
2015,08,07,06,41,12.80
2015,08,07,06,42,12.80
2015,08,07,06,43,12.80
2015,08,07,06,44,12.90
2015,08,07,06,45,12.90
2015,08,07,06,46,13.00
2015,08,07,06,47,13.00
2015,08,07,06,48,13.10
2015,08,07,06,49,13.10
2015,08,07,06,50,13.10
2015,08,07,06,51,13.20
2015,08,07,06,52,13.20
2015,08,07,06,53,13.30
2015,08,07,06,54,13.30
2015,08,07,06,55,13.40
2015,08,07,06,56,13.40
2015,08,07,06,57,13.50
2015,08,07,06,58,13.50
2015,08,07,06,59,13.60
2015,08,07,07,00,13.70
2015,08,07,07,01,13.70
2015,08,07,07,02,13.70
2015,08,07,07,03,13.70
2015,08,07,07,04,13.70
2015,08,07,07,05,13.70
2015,08,07,07,06,13.70
2015,08,07,07,07,13.70
2015,08,07,07,08,13.70
2015,08,07,07,09,13.70
2015,08,07,07,10,13.70
2015,08,07,07,11,13.70
2015,08,07,07,12,13.70
2015,08,07,07,13,13.70
2015,08,07,07,14,13.70
2015,08,07,07,15,13.70
2015,08,07,07,16,13.70
2015,08,07,07,17,13.70
2015,08,07,07,18,13.80
2015,08,07,07,19,13.80
2015,08,07,07,20,13.80
2015,08,07,07,21,13.80
2015,08,07,07,22,13.90
2015,08,07,07,23,13.90
2015,08,07,07,24,14.00
2015,08,07,07,25,14.10
2015,08,07,07,26,14.20
2015,08,07,07,27,14.30
2015,08,07,07,28,14.40
2015,08,07,07,29,14.50
2015,08,07,07,30,14.60
2015,08,07,07,31,14.70
2015,08,07,07,32,14.70
2015,08,07,07,33,14.80
2015,08,07,07,34,14.80
2015,08,07,07,35,14.80
2015,08,07,07,36,14.80
2015,08,07,07,37,14.80
2015,08,07,07,38,14.90
2015,08,07,07,39,14.90
2015,08,07,07,40,14.90
2015,08,07,07,41,14.90
2015,08,07,07,42,14.90
2015,08,07,07,43,15.00
2015,08,07,07,44,15.00
2015,08,07,07,45,15.00
2015,08,07,07,46,15.10
2015,08,07,07,47,15.10
2015,08,07,07,48,15.10
2015,08,07,07,49,15.20
2015,08,07,07,50,15.20
2015,08,07,07,51,15.20
2015,08,07,07,52,15.30
2015,08,07,07,53,15.30
2015,08,07,07,54,15.30
2015,08,07,07,55,15.40
2015,08,07,07,56,15.40
2015,08,07,07,57,15.50
2015,08,07,07,58,15.50
2015,08,07,07,59,15.60
2015,08,07,08,00,15.60
2015,08,07,08,01,15.60
2015,08,07,08,02,15.70
2015,08,07,08,03,15.70
2015,08,07,08,04,15.70
2015,08,07,08,05,15.80
2015,08,07,08,06,15.80
2015,08,07,08,07,15.80
2015,08,07,08,08,15.90
2015,08,07,08,09,16.00
2015,08,07,08,10,16.10
2015,08,07,08,11,16.20
2015,08,07,08,12,16.30
2015,08,07,08,13,16.40
2015,08,07,08,14,16.50
2015,08,07,08,15,16.60
2015,08,07,08,16,16.70
2015,08,07,08,17,16.80
2015,08,07,08,18,16.90
2015,08,07,08,19,17.00
2015,08,07,08,20,17.00
2015,08,07,08,21,17.10
2015,08,07,08,22,17.20
2015,08,07,08,23,17.20
2015,08,07,08,24,17.20
2015,08,07,08,25,17.30
2015,08,07,08,26,17.40
2015,08,07,08,27,17.50
2015,08,07,08,28,17.60
2015,08,07,08,29,17.70
2015,08,07,08,30,17.70
2015,08,07,08,31,17.80
2015,08,07,08,32,17.80
2015,08,07,08,33,17.80
2015,08,07,08,34,17.90
2015,08,07,08,35,18.00
2015,08,07,08,36,18.00
2015,08,07,08,37,18.10
2015,08,07,08,38,18.10
2015,08,07,08,39,18.20
2015,08,07,08,40,18.20
2015,08,07,08,41,18.30
2015,08,07,08,42,18.30
2015,08,07,08,43,18.30
2015,08,07,08,44,18.30
2015,08,07,08,45,18.40
2015,08,07,08,46,18.40
2015,08,07,08,47,18.40
2015,08,07,08,48,18.40
2015,08,07,08,49,18.40
2015,08,07,08,50,18.40
2015,08,07,08,51,18.40
2015,08,07,08,52,18.40
2015,08,07,08,53,18.40
2015,08,07,08,54,18.40
2015,08,07,08,55,18.40
2015,08,07,08,56,18.40
2015,08,07,08,57,18.40
2015,08,07,08,58,18.50
2015,08,07,08,59,18.50
2015,08,07,09,00,18.60
2015,08,07,09,01,18.60
2015,08,07,09,02,18.70
2015,08,07,09,03,18.70
2015,08,07,09,04,18.70
2015,08,07,09,05,18.70
2015,08,07,09,06,18.80
2015,08,07,09,07,18.80
2015,08,07,09,08,18.80
2015,08,07,09,09,18.90
2015,08,07,09,10,18.90
2015,08,07,09,11,18.90
2015,08,07,09,12,18.90
2015,08,07,09,13,18.90
2015,08,07,09,14,18.90
2015,08,07,09,15,18.90
2015,08,07,09,16,18.90
2015,08,07,09,17,18.90
2015,08,07,09,18,18.90
2015,08,07,09,19,18.80
2015,08,07,09,20,18.80
2015,08,07,09,21,18.80
2015,08,07,09,22,18.80
2015,08,07,09,23,18.80
2015,08,07,09,24,18.80
2015,08,07,09,25,18.80
2015,08,07,09,26,18.80
2015,08,07,09,27,18.70
2015,08,07,09,28,18.70
2015,08,07,09,29,18.70
2015,08,07,09,30,18.70
2015,08,07,09,31,18.70
2015,08,07,09,32,18.70
2015,08,07,09,33,18.70
2015,08,07,09,34,18.60
2015,08,07,09,35,18.60
2015,08,07,09,36,18.60
2015,08,07,09,37,18.60
2015,08,07,09,38,18.60
2015,08,07,09,39,18.60
2015,08,07,09,40,18.60
2015,08,07,09,41,18.60
2015,08,07,09,42,18.60
2015,08,07,09,43,18.60
2015,08,07,09,44,18.70
2015,08,07,09,45,18.60
2015,08,07,09,46,18.60
2015,08,07,09,47,18.60
2015,08,07,09,48,18.60
2015,08,07,09,49,18.60
2015,08,07,09,50,18.60
2015,08,07,09,51,18.70
2015,08,07,09,52,18.70
2015,08,07,09,53,18.70
2015,08,07,09,54,18.70
2015,08,07,09,55,18.70
2015,08,07,09,56,18.70
2015,08,07,09,57,18.80
2015,08,07,09,58,18.80
2015,08,07,09,59,18.80
2015,08,07,10,00,18.80
2015,08,07,10,01,18.80
2015,08,07,10,02,18.80
2015,08,07,10,03,18.70
2015,08,07,10,04,18.70
2015,08,07,10,05,18.70
2015,08,07,10,06,18.60
2015,08,07,10,07,18.60
2015,08,07,10,08,18.60
2015,08,07,10,09,18.70
2015,08,07,10,10,18.70
2015,08,07,10,11,18.80
2015,08,07,10,12,18.80
2015,08,07,10,13,18.90
2015,08,07,10,14,18.90
2015,08,07,10,15,19.00
2015,08,07,10,16,19.10
2015,08,07,10,17,19.10
2015,08,07,10,18,19.10
2015,08,07,10,19,19.20
2015,08,07,10,20,19.10
2015,08,07,10,21,19.10
2015,08,07,10,22,19.10
2015,08,07,10,23,19.20
2015,08,07,10,24,19.20
2015,08,07,10,25,19.20
2015,08,07,10,26,19.30
2015,08,07,10,27,19.30
2015,08,07,10,28,19.30
2015,08,07,10,29,19.40
2015,08,07,10,30,19.40
2015,08,07,10,31,19.40
2015,08,07,10,32,19.40
2015,08,07,10,33,19.50
2015,08,07,10,34,19.50
2015,08,07,10,35,19.50
2015,08,07,10,36,19.40
2015,08,07,10,37,19.40
2015,08,07,10,38,19.40
2015,08,07,10,39,19.40
2015,08,07,10,40,19.40
2015,08,07,10,41,19.40
2015,08,07,10,42,19.50
2015,08,07,10,43,19.50
2015,08,07,10,44,19.60
2015,08,07,10,45,19.70
2015,08,07,10,46,19.70
2015,08,07,10,47,19.70
2015,08,07,10,48,19.80
2015,08,07,10,49,19.80
2015,08,07,10,50,19.90
2015,08,07,10,51,19.90
2015,08,07,10,52,19.90
2015,08,07,10,53,19.90
2015,08,07,10,54,19.90
2015,08,07,10,55,19.90
2015,08,07,10,56,19.90
2015,08,07,10,57,20.00
2015,08,07,10,58,20.00
2015,08,07,10,59,20.10
2015,08,07,11,00,20.20
2015,08,07,11,01,20.20
2015,08,07,11,02,20.30
2015,08,07,11,03,20.40
2015,08,07,11,04,20.50
2015,08,07,11,05,20.60
2015,08,07,11,06,20.70
2015,08,07,11,07,20.70
2015,08,07,11,08,20.80
2015,08,07,11,09,20.80
2015,08,07,11,10,20.80
2015,08,07,11,11,20.70
2015,08,07,11,12,20.70
2015,08,07,11,13,20.70
2015,08,07,11,14,20.60
2015,08,07,11,15,20.60
2015,08,07,11,16,20.70
2015,08,07,11,17,20.70
2015,08,07,11,18,20.70
2015,08,07,11,19,20.70
2015,08,07,11,20,20.70
2015,08,07,11,21,20.70
2015,08,07,11,22,20.70
2015,08,07,11,23,20.70
2015,08,07,11,24,20.70
2015,08,07,11,25,20.70
2015,08,07,11,26,20.70
2015,08,07,11,27,20.60
2015,08,07,11,28,20.60
2015,08,07,11,29,20.50
2015,08,07,11,30,20.40
2015,08,07,11,31,20.40
2015,08,07,11,32,20.30
2015,08,07,11,33,20.30
2015,08,07,11,34,20.30
2015,08,07,11,35,20.30
2015,08,07,11,36,20.30
2015,08,07,11,37,20.40
2015,08,07,11,38,20.40
2015,08,07,11,39,20.40
2015,08,07,11,40,20.40
2015,08,07,11,41,20.40
2015,08,07,11,42,20.40
2015,08,07,11,43,20.40
2015,08,07,11,44,20.30
2015,08,07,11,45,20.30
2015,08,07,11,46,20.30
2015,08,07,11,47,20.30
2015,08,07,11,48,20.40
2015,08,07,11,49,20.60
2015,08,07,11,50,20.60
2015,08,07,11,51,20.70
2015,08,07,11,52,20.70
2015,08,07,11,53,20.80
2015,08,07,11,54,20.80
2015,08,07,11,55,20.80
2015,08,07,11,56,20.90
2015,08,07,11,57,20.90
2015,08,07,11,58,21.00
2015,08,07,11,59,21.10
2015,08,07,12,00,21.20
2015,08,07,12,01,21.20
2015,08,07,12,02,21.20
2015,08,07,12,03,21.20
2015,08,07,12,04,21.20
2015,08,07,12,05,21.10
2015,08,07,12,06,21.10
2015,08,07,12,07,21.00
2015,08,07,12,08,21.00
2015,08,07,12,09,21.10
2015,08,07,12,10,21.10
2015,08,07,12,11,21.20
2015,08,07,12,12,21.20
2015,08,07,12,13,21.20
2015,08,07,12,14,21.20
2015,08,07,12,15,21.30
2015,08,07,12,16,21.30
2015,08,07,12,17,21.30
2015,08,07,12,18,21.20
2015,08,07,12,19,21.10
2015,08,07,12,20,21.10
2015,08,07,12,21,21.20
2015,08,07,12,22,21.20
2015,08,07,12,23,21.20
2015,08,07,12,24,21.20
2015,08,07,12,25,21.20
2015,08,07,12,26,21.10
2015,08,07,12,27,21.10
2015,08,07,12,28,21.20
2015,08,07,12,29,21.20
2015,08,07,12,30,21.30
2015,08,07,12,31,21.40
2015,08,07,12,32,21.40
2015,08,07,12,33,21.50
2015,08,07,12,34,21.60
2015,08,07,12,35,21.60
2015,08,07,12,36,21.70
2015,08,07,12,37,21.70
2015,08,07,12,38,21.70
2015,08,07,12,39,21.70
2015,08,07,12,40,21.70
2015,08,07,12,41,21.70
2015,08,07,12,42,21.70
2015,08,07,12,43,21.70
2015,08,07,12,44,21.80
2015,08,07,12,45,21.80
2015,08,07,12,46,21.80
2015,08,07,12,47,21.80
2015,08,07,12,48,21.80
2015,08,07,12,49,21.90
2015,08,07,12,50,22.00
2015,08,07,12,51,22.00
2015,08,07,12,52,22.00
2015,08,07,12,53,22.00
2015,08,07,12,54,21.80
2015,08,07,12,55,21.80
2015,08,07,12,56,21.80
2015,08,07,12,57,21.90
2015,08,07,12,58,21.90
2015,08,07,12,59,21.80
2015,08,07,13,00,21.80
2015,08,07,13,01,21.80
2015,08,07,13,02,21.80
2015,08,07,13,03,21.90
2015,08,07,13,04,21.90
2015,08,07,13,05,22.00
2015,08,07,13,06,22.00
2015,08,07,13,07,22.00
2015,08,07,13,08,22.10
2015,08,07,13,09,22.20
2015,08,07,13,10,22.30
2015,08,07,13,11,22.40
2015,08,07,13,12,22.50
2015,08,07,13,13,22.60
2015,08,07,13,14,22.70
2015,08,07,13,15,22.70
2015,08,07,13,16,22.70
2015,08,07,13,17,22.70
2015,08,07,13,18,22.70
2015,08,07,13,19,22.70
2015,08,07,13,20,22.70
2015,08,07,13,21,22.70
2015,08,07,13,22,22.70
2015,08,07,13,23,22.60
2015,08,07,13,24,22.50
2015,08,07,13,25,22.50
2015,08,07,13,26,22.50
2015,08,07,13,27,22.60
2015,08,07,13,28,22.60
2015,08,07,13,29,22.60
2015,08,07,13,30,22.50
2015,08,07,13,31,22.40
2015,08,07,13,32,22.40
2015,08,07,13,33,22.50
2015,08,07,13,34,22.50
2015,08,07,13,35,22.50
2015,08,07,13,36,22.40
2015,08,07,13,37,22.40
2015,08,07,13,38,22.40
2015,08,07,13,39,22.30
2015,08,07,13,40,22.30
2015,08,07,13,41,22.40
2015,08,07,13,42,22.40
2015,08,07,13,43,22.40
2015,08,07,13,44,22.40
2015,08,07,13,45,22.40
2015,08,07,13,46,22.40
2015,08,07,13,47,22.50
2015,08,07,13,48,22.50
2015,08,07,13,49,22.60
2015,08,07,13,50,22.60
2015,08,07,13,51,22.70
2015,08,07,13,52,22.70
2015,08,07,13,53,22.80
2015,08,07,13,54,22.80
2015,08,07,13,55,22.80
2015,08,07,13,56,22.80
2015,08,07,13,57,22.80
2015,08,07,13,58,22.90
2015,08,07,13,59,23.00
2015,08,07,14,00,23.10
2015,08,07,14,01,23.20
2015,08,07,14,02,23.30
2015,08,07,14,03,23.30
2015,08,07,14,04,23.40
2015,08,07,14,05,23.50
2015,08,07,14,06,23.50
2015,08,07,14,07,23.50
2015,08,07,14,08,23.50
2015,08,07,14,09,23.50
2015,08,07,14,10,23.60
2015,08,07,14,11,23.60
2015,08,07,14,12,23.50
2015,08,07,14,13,23.50
2015,08,07,14,14,23.40
2015,08,07,14,15,23.40
2015,08,07,14,16,23.30
2015,08,07,14,17,23.30
2015,08,07,14,18,23.20
2015,08,07,14,19,23.20
2015,08,07,14,20,23.10
2015,08,07,14,21,23.10
2015,08,07,14,22,23.00
2015,08,07,14,23,22.90
2015,08,07,14,24,22.90
2015,08,07,14,25,22.80
2015,08,07,14,26,22.70
2015,08,07,14,27,22.70
2015,08,07,14,28,22.70
2015,08,07,14,29,22.60
2015,08,07,14,30,22.50
2015,08,07,14,31,22.50
2015,08,07,14,32,22.50
2015,08,07,14,33,22.50
2015,08,07,14,34,22.50
2015,08,07,14,35,22.60
2015,08,07,14,36,22.60
2015,08,07,14,37,22.50
2015,08,07,14,38,22.30
2015,08,07,14,39,22.10
2015,08,07,14,40,21.80
2015,08,07,14,41,21.70
2015,08,07,14,42,21.60
2015,08,07,14,43,21.50
2015,08,07,14,44,21.40
2015,08,07,14,45,21.40
2015,08,07,14,46,21.40
2015,08,07,14,47,21.40
2015,08,07,14,48,21.30
2015,08,07,14,49,21.30
2015,08,07,14,50,21.30
2015,08,07,14,51,21.30
2015,08,07,14,52,21.20
2015,08,07,14,53,21.10
2015,08,07,14,54,21.00
2015,08,07,14,55,20.90
2015,08,07,14,56,20.90
2015,08,07,14,57,20.80
2015,08,07,14,58,20.80
2015,08,07,14,59,20.80
2015,08,07,15,00,20.80
2015,08,07,15,01,20.80
2015,08,07,15,02,20.70
2015,08,07,15,03,20.70
2015,08,07,15,04,20.70
2015,08,07,15,05,20.60
2015,08,07,15,06,20.40
2015,08,07,15,07,20.30
2015,08,07,15,08,20.00
2015,08,07,15,09,19.80
2015,08,07,15,10,19.60
2015,08,07,15,11,19.40
2015,08,07,15,12,19.30
2015,08,07,15,13,19.30
2015,08,07,15,14,19.30
2015,08,07,15,15,19.40
2015,08,07,15,16,19.40
2015,08,07,15,17,19.50
2015,08,07,15,18,19.60
2015,08,07,15,19,19.70
2015,08,07,15,20,19.90
2015,08,07,15,21,20.00
2015,08,07,15,22,20.00
2015,08,07,15,23,20.10
2015,08,07,15,24,20.10
2015,08,07,15,25,20.00
2015,08,07,15,26,20.00
2015,08,07,15,27,20.00
2015,08,07,15,28,20.00
2015,08,07,15,29,20.10
2015,08,07,15,30,20.30
2015,08,07,15,31,20.40
2015,08,07,15,32,20.40
2015,08,07,15,33,20.40
2015,08,07,15,34,20.30
2015,08,07,15,35,20.40
2015,08,07,15,36,20.50
2015,08,07,15,37,20.50
2015,08,07,15,38,20.60
2015,08,07,15,39,20.50
2015,08,07,15,40,20.30
2015,08,07,15,41,20.30
2015,08,07,15,42,20.20
2015,08,07,15,43,20.10
2015,08,07,15,44,20.00
2015,08,07,15,45,20.00
2015,08,07,15,46,19.90
2015,08,07,15,47,19.70
2015,08,07,15,48,19.70
2015,08,07,15,49,19.60
2015,08,07,15,50,19.60
2015,08,07,15,51,19.50
2015,08,07,15,52,19.40
2015,08,07,15,53,19.40
2015,08,07,15,54,19.30
2015,08,07,15,55,19.30
2015,08,07,15,56,19.40
2015,08,07,15,57,19.40
2015,08,07,15,58,19.40
2015,08,07,15,59,19.40
2015,08,07,16,00,19.40
2015,08,07,16,01,19.40
2015,08,07,16,02,19.40
2015,08,07,16,03,19.50
2015,08,07,16,04,19.60
2015,08,07,16,05,19.70
2015,08,07,16,06,19.70
2015,08,07,16,07,19.80
2015,08,07,16,08,19.90
2015,08,07,16,09,20.00
2015,08,07,16,10,20.10
2015,08,07,16,11,20.20
2015,08,07,16,12,20.20
2015,08,07,16,13,20.30
2015,08,07,16,14,20.30
2015,08,07,16,15,20.40
2015,08,07,16,16,20.50
2015,08,07,16,17,20.50
2015,08,07,16,18,20.50
2015,08,07,16,19,20.40
2015,08,07,16,20,20.40
2015,08,07,16,21,20.30
2015,08,07,16,22,20.30
2015,08,07,16,23,20.30
2015,08,07,16,24,20.30
2015,08,07,16,25,20.30
2015,08,07,16,26,20.40
2015,08,07,16,27,20.40
2015,08,07,16,28,20.50
2015,08,07,16,29,20.60
2015,08,07,16,30,20.70
2015,08,07,16,31,20.90
2015,08,07,16,32,21.00
2015,08,07,16,33,21.20
2015,08,07,16,34,21.20
2015,08,07,16,35,21.30
2015,08,07,16,36,21.30
2015,08,07,16,37,21.30
2015,08,07,16,38,21.40
2015,08,07,16,39,21.40
2015,08,07,16,40,21.50
2015,08,07,16,41,21.60
2015,08,07,16,42,21.70
2015,08,07,16,43,21.80
2015,08,07,16,44,21.80
2015,08,07,16,45,21.90
2015,08,07,16,46,21.90
2015,08,07,16,47,21.90
2015,08,07,16,48,22.00
2015,08,07,16,49,22.00
2015,08,07,16,50,22.10
2015,08,07,16,51,22.10
2015,08,07,16,52,22.10
2015,08,07,16,53,22.10
2015,08,07,16,54,22.10
2015,08,07,16,55,22.10
2015,08,07,16,56,22.10
2015,08,07,16,57,22.20
2015,08,07,16,58,22.20
2015,08,07,16,59,22.30
2015,08,07,17,00,22.40
2015,08,07,17,01,22.40
2015,08,07,17,02,22.40
2015,08,07,17,03,22.40
2015,08,07,17,04,22.40
2015,08,07,17,05,22.40
2015,08,07,17,06,22.40
2015,08,07,17,07,22.40
2015,08,07,17,08,22.50
2015,08,07,17,09,22.50
2015,08,07,17,10,22.50
2015,08,07,17,11,22.60
2015,08,07,17,12,22.60
2015,08,07,17,13,22.70
2015,08,07,17,14,22.70
2015,08,07,17,15,22.70
2015,08,07,17,16,22.70
2015,08,07,17,17,22.60
2015,08,07,17,18,22.60
2015,08,07,17,19,22.60